Regional Weather Roundup
Issued by NWS New Orleans/Baton Rouge, LA

Home | Current Version | Previous Version | Text Only | Print | Product List | Glossary On
Versions: 1 2 3 4 5 6 7 8 9 10 11 12 13 14 15 16 17 18 19 20 21 22 23 24 25 26 27
000
ASUS44 KLIX 260713
RWRLIX
NEW ORLEANS REGIONAL WEATHER ROUNDUP
NATIONAL WEATHER SERVICE NEW ORLEANS LA
100 AM CST SUN FEB 26 2017

NOTE: "FAIR" INDICATES FEW OR NO CLOUDS BELOW 12,000 FEET WITH NO
      SIGNIFICANT WEATHER AND/OR OBSTRUCTIONS TO VISIBILITY.
      SKY/WX - SKY CONDITION AND SIGNIFICANT WEATHER.
      TMP - AIR TEMPERATURE.     DP    - DEWPOINT TEMPERATURE.
      RH  - RELATIVE HUMIDITY.   PRES  - PRESSURE.
      HI  - HEAT INDEX.          WCI   - WIND CHILL INDEX.

*  THESE STATIONS ARE NOT NWS OR FAA STATIONS AND ARE NOT UNDER
   NWS QUALITY CONTROL.

LAZ038-040-048-061>063-065>067-069-260800-
SOUTHEAST LOUISIANA

CITY           SKY/WX    TMP DP  RH WIND       PRES   REMARKS
N.O. AUDUBON   NOT AVBL
N.O. INTL ARPT CLEAR     55  38  52 NE7       30.11F
N.O. LAKEFRONT CLEAR     56  38  50 NE16      30.12S
N.O. DOWNTOWN*   N/A     55  35  47 VRB6      30.12S
RESERVE*         N/A     50  33  52 NE7       30.12S
SLIDELL        CLEAR     43  34  70 CALM      30.12S
BATON ROUGE    CLEAR     44  34  67 NE5       30.12S
BOOTHVILLE     CLEAR     58  47  66 NE6       30.11R
BELLE CHASSE   PTCLDY    49  37  63 NE6       30.11S
BOGALUSA*        N/A     40  34  80 N5        30.15S
GALLIANO*      SUNNY     55  37  49 NE7       30.11S
NEW ROADS*       N/A     43  34  70 E5        30.13S
GONZALES*        N/A     48  32  53 CALM      30.11S
HAMMOND*       CLEAR     45  32  61 CALM      30.13S
HOUMA*         CLEAR     49  39  69 NE5       30.11F
PORT FOURCHON* NOT AVBL

$$

MSZ070-080>082-260800-
SOUTHERN MISSISSIPPI

CITY           SKY/WX    TMP DP  RH WIND       PRES   REMARKS
MCCOMB         CLEAR     43  26  51 NE3       30.13S
GULFPORT       CLEAR     48  30  49 N7        30.12S
BILOXI         CLEAR     48  31  51 NE8       30.11S
PASCAGOULA     CLEAR     45  29  53 N7        30.13S

$$

COASTAL OBSERVATIONS
LAKE AND NEARSHORE STATIONS

STATION/POSITION TIME  TEMP    WIND        PRES    WAVE
                       AIR SEA DIR/SP/G            HT/PER
                 (UTC) (F)     (DEG/KT/KT) (MB)    (FT/S)
PASCAGOULA       0648   50      20/  7/ 11 1019.4
WAVELAND YACHT   0648   51 64   40/ 12/ 14 1019.6
GRAND ISLE       0648   60 68   60/ 11/ 16 1019.4
SOUTHWEST PASS   0648           40/ 11/ 12   N/A
NEW CANAL        0648   57 65   60/ 16/ 18 1018.6
SHELL BEACH      0648   58 67   40/ 16/ 19 1019.4

OFFSHORE STATIONS

STATION/POSITION TIME  TEMP    WIND        PRES    WAVE
                       AIR SEA DIR/SP/G            HT/PER
                 (UTC) (F)     (DEG/KT/KT) (MB)    (FT/S)

$$





USA.gov is the U.S. government's official web portal to all federal, state and local government web resources and services.